Location: Degersen
(52.2871°N, 9.5716°E)
Time: 09:53:21
(UTC+00:00)

Nadezhda 3 Rocket - Pass Details

Date: 20 January 2026
Orbit: 956 x 997 km, 82.9° (Epoch: 18 February)

Event Time Altitude Azimuth Distance (km) Brightness Sun altitude
Rises 04:33:56 0° 349° (NNW) 3,681 6.9 -24.7°
Reaches altitude 10° 04:36:26 10° 348° (NNW) 2,735 6.2 -24.3°
Maximum altitude 04:42:43 82° 263° (W) 1,000 3.9 -23.3°
Drops below altitude 10° 04:49:01 10° 176° (S) 2,744 6.4 -22.4°
Sets 04:51:32 0° 176° (S) 3,694 7.1 -22.0°
